Weather reports worldwide

Advertisment
Chania/Souda, Greece (16746): temperature & dewpoint: 08.12.2017 22:00:00 - 14.12.2017 22:00:00 (EET)Chania/Souda, Greece (16746): wind speed: 08.12.2017 22:00:00 - 14.12.2017 22:00:00 (EET)Chania/Souda, Greece (16746): wind direction: 08.12.2017 22:00:00 - 14.12.2017 22:00:00 (EET)Chania/Souda, Greece (16746): reduced air pressure: 08.12.2017 22:00:00 - 14.12.2017 22:00:00 (EET)Chania/Souda, Greece (16746): visibility: 08.12.2017 22:00:00 - 14.12.2017 22:00:00 (EET)
Date & Time tt [°C] td [°C] ff [km/h] ff [kn] dd ppp [hPa] vv [km]
14.12.2017 22:00:00 16,0 12,0 48 26 W - 10
14.12.2017 21:00:00 16,0 12,0 22 12 W - 10
14.12.2017 20:00:00 16,0 11,6 11 6 WSW 1017,5 10
14.12.2017 19:00:00 15,0 12,0 26 14 W - 10
14.12.2017 18:00:00 16,0 13,0 18 10 W - 10
14.12.2017 17:00:00 17,0 12,3 18 10 WSW 1017,1 10
14.12.2017 16:00:00 18,0 12,0 29 16 W - 10
14.12.2017 15:00:00 19,0 13,0 29 16 W - 10
14.12.2017 14:00:00 18,4 12,3 39 21 W 1018,0 10
14.12.2017 13:00:00 18,0 14,0 34 18 W - 10
14.12.2017 12:00:00 18,0 13,0 41 22 W - 10
14.12.2017 11:00:00 17,8 12,4 41 22 W 1019,3 10
14.12.2017 10:00:00 17,0 12,0 44 24 W - 10
14.12.2017 09:00:00 16,0 11,0 28 15 W - 10
14.12.2017 08:00:00 15,0 10,1 41 22 W 1018,7 10
14.12.2017 07:00:00 15,0 11,0 34 18 W - 10
14.12.2017 06:00:00 15,0 12,0 46 25 W - 10
14.12.2017 05:00:00 14,0 12,2 28 15 W 1018,9 10
14.12.2017 04:00:00 14,0 12,0 41 22 W - 10
14.12.2017 03:00:00 14,0 12,0 44 24 W - 10
14.12.2017 02:00:00 14,6 11,6 37 20 W 1019,4 10
14.12.2017 01:00:00 14,0 12,0 29 16 W - 10
14.12.2017 00:00:00 14,0 12,0 35 19 W - 10
13.12.2017 23:00:00 14,4 11,8 29 16 W 1020,5 10
13.12.2017 22:00:00 14,0 12,0 24 13 W - 10
13.12.2017 21:00:00 15,0 12,0 31 17 W - 10
13.12.2017 20:00:00 14,6 11,6 34 18 W 1021,1 10
13.12.2017 19:00:00 15,0 11,0 28 15 W - 10
13.12.2017 18:00:00 15,0 11,0 28 15 W - 10
13.12.2017 17:00:00 16,0 12,0 28 15 WSW 1021,3 10
13.12.2017 16:00:00 18,0 13,0 29 16 W - 10
13.12.2017 15:00:00 18,0 13,0 31 17 W - 10
13.12.2017 14:00:00 18,4 13,5 37 20 W 1021,8 10
13.12.2017 13:00:00 19,0 14,0 41 22 W - 10
13.12.2017 12:00:00 17,0 14,0 29 16 W - 10
13.12.2017 11:00:00 17,4 13,5 31 17 W 1023,4 10
13.12.2017 10:00:00 16,0 13,0 26 14 W - 10
13.12.2017 09:00:00 15,0 12,0 15 8 W - 10
13.12.2017 08:00:00 13,0 10,3 0 0 N 1022,9 10
13.12.2017 07:00:00 13,0 10,0 11 6 WNW - 10
13.12.2017 06:00:00 13,0 8,0 18 10 W - 10
13.12.2017 05:00:00 12,4 9,2 8 4 W 1022,9 10
13.12.2017 04:00:00 11,0 9,0 15 8 W - 10
13.12.2017 03:00:00 11,0 9,0 11 6 WSW - 10
13.12.2017 02:00:00 10,8 8,8 8 4 W 1023,5 10
13.12.2017 01:00:00 11,0 9,0 8 4 W - 10
13.12.2017 00:00:00 11,0 9,0 8 4 WSW - 10
12.12.2017 23:00:00 10,8 9,2 0 0 N 1023,9 10
12.12.2017 22:00:00 11,0 10,0 0 0 N - 10
12.12.2017 21:00:00 11,0 10,0 0 0 N - 10
12.12.2017 20:00:00 11,0 10,2 0 0 N 1023,8 10
12.12.2017 19:00:00 13,0 11,0 0 0 N - 10
12.12.2017 18:00:00 14,0 12,0 0 0 N - 10
12.12.2017 17:00:00 16,0 14,3 0 0 N 1022,5 10
12.12.2017 16:00:00 17,0 14,0 13 7 ENE - 10
12.12.2017 15:00:00 19,0 11,0 18 10 ENE - 10
12.12.2017 14:00:00 19,0 10,5 15 8 ENE 1022,2 10
12.12.2017 13:00:00 18,0 13,0 11 6 NE - 10
12.12.2017 12:00:00 18,0 12,0 8 4 ESE - 10
12.12.2017 11:00:00 17,4 12,8 8 4 SE 1023,5 10
12.12.2017 10:00:00 14,0 10,0 0 0 N - 10
12.12.2017 09:00:00 11,0 9,0 0 0 N - 10
12.12.2017 08:00:00 9,0 8,2 0 0 N 1023,5 10
12.12.2017 07:00:00 10,0 8,0 0 0 N - 10
12.12.2017 06:00:00 9,0 8,0 5 3 WSW - 10
12.12.2017 05:00:00 9,4 9,0 0 0 N 1023,4 10
12.12.2017 04:00:00 10,0 9,0 0 0 N - 10
12.12.2017 03:00:00 10,0 9,0 8 4 SSE - 10
12.12.2017 02:00:00 10,8 9,6 0 0 N 1023,5 10
12.12.2017 01:00:00 11,0 10,0 0 0 N - 10
12.12.2017 00:00:00 11,0 10,0 0 0 N - 10
11.12.2017 23:00:00 11,0 10,2 8 4 SW 1024,2 10
11.12.2017 22:00:00 13,0 12,0 0 0 N - 10
11.12.2017 21:00:00 14,0 12,0 8 4 SSE - 10
11.12.2017 20:00:00 13,8 11,6 11 6 SSE 1023,9 10
11.12.2017 19:00:00 14,0 12,0 8 4 SSE - 10
11.12.2017 18:00:00 14,0 12,0 8 4 ESE - 10
11.12.2017 17:00:00 15,4 12,5 8 4 E 1023,3 10
11.12.2017 16:00:00 16,0 13,0 11 6 ESE - 10
11.12.2017 15:00:00 16,0 11,0 11 6 ESE - 10
11.12.2017 14:00:00 15,8 11,0 9 5 ESE 1023,4 10
11.12.2017 13:00:00 15,0 10,0 11 6 E - 10
11.12.2017 12:00:00 14,0 10,0 11 6 ESE - 10
11.12.2017 11:00:00 13,8 10,8 11 6 SSE 1024,7 10
11.12.2017 10:00:00 13,0 10,0 11 6 SSE - 10
11.12.2017 09:00:00 11,0 9,0 11 6 S - 10
11.12.2017 08:00:00 8,8 7,5 11 6 SSE 1023,9 10
11.12.2017 07:00:00 9,0 7,0 9 5 SSW - 10
11.12.2017 06:00:00 9,0 8,0 0 0 N - 10
11.12.2017 05:00:00 9,8 9,0 0 0 N 1022,5 10
11.12.2017 04:00:00 11,0 9,0 13 7 W - 10
11.12.2017 03:00:00 10,0 8,0 9 5 W - 10
11.12.2017 02:00:00 10,2 9,4 9 5 SW 1022,2 10
11.12.2017 01:00:00 11,0 10,0 0 0 N - 10
11.12.2017 00:00:00 12,0 11,0 8 4 NNW - 10
10.12.2017 23:00:00 11,8 10,3 18 10 W 1021,8 10
10.12.2017 22:00:00 12,0 10,0 18 10 W - 10
10.12.2017 21:00:00 12,0 10,0 13 7 W - 10
10.12.2017 20:00:00 12,8 9,3 15 8 WSW 1020,7 10
10.12.2017 19:00:00 13,0 12,0 11 6 W - 10
10.12.2017 18:00:00 14,0 11,0 21 11 W - 10
10.12.2017 17:00:00 15,0 12,1 28 15 W 1019,5 10
10.12.2017 16:00:00 16,0 12,0 28 15 W - 10
10.12.2017 15:00:00 17,0 12,0 22 12 W - 10
10.12.2017 14:00:00 17,6 11,8 29 16 W 1018,7 10
10.12.2017 13:00:00 16,0 12,0 26 14 W - 10
10.12.2017 12:00:00 16,0 12,0 34 18 W - 10
10.12.2017 11:00:00 16,2 12,2 28 15 W 1018,9 10
10.12.2017 10:00:00 16,0 12,0 28 15 W - 10
10.12.2017 09:00:00 14,0 10,0 18 10 W - 10
10.12.2017 08:00:00 11,8 8,2 8 4 WSW 1018,3 10
10.12.2017 07:00:00 12,0 10,0 11 6 SSW - 10
10.12.2017 06:00:00 12,0 11,0 0 0 N - 10
10.12.2017 05:00:00 12,4 9,7 8 4 S 1017,8 10
10.12.2017 04:00:00 12,0 10,0 9 5 SSW - 10
10.12.2017 03:00:00 12,0 9,0 11 6 SSW - 10
10.12.2017 02:00:00 12,0 9,2 0 0 N 1018,7 10
10.12.2017 01:00:00 11,0 10,0 0 0 N - 10
10.12.2017 00:00:00 12,0 9,0 0 0 N - 10
09.12.2017 23:00:00 11,0 9,0 9 5 WSW 1019,1 10
09.12.2017 22:00:00 12,0 9,0 0 0 N - 10
09.12.2017 21:00:00 12,0 10,0 8 4 SE - 10
09.12.2017 20:00:00 11,6 9,6 11 6 ENE 1019,6 10
09.12.2017 19:00:00 13,0 11,0 8 4 SE - 10
09.12.2017 18:00:00 14,0 11,0 11 6 WSW - 10
09.12.2017 17:00:00 16,0 10,8 18 10 SW 1019,4 10
09.12.2017 16:00:00 17,0 11,0 31 17 W - 10
09.12.2017 15:00:00 18,0 10,0 29 16 W - 10
09.12.2017 14:00:00 18,0 10,6 11 6 NE 1019,5 10
09.12.2017 13:00:00 18,0 12,0 15 8 E - 10
09.12.2017 12:00:00 18,0 12,0 11 6 E - 10
09.12.2017 11:00:00 15,8 9,7 13 7 WNW 1021,5 10
09.12.2017 10:00:00 15,0 10,0 18 10 W - 10
09.12.2017 09:00:00 13,0 9,0 0 0 N - 10
09.12.2017 08:00:00 10,0 7,9 11 6 SW 1021,9 10
09.12.2017 07:00:00 11,0 9,0 8 4 SSW - 10
09.12.2017 06:00:00 11,0 9,0 11 6 SSW - 10
09.12.2017 05:00:00 11,4 9,0 11 6 SSW 1021,8 10
09.12.2017 04:00:00 11,0 8,0 0 0 N - 10
09.12.2017 03:00:00 11,0 8,0 11 6 S - 10
09.12.2017 02:00:00 11,4 8,2 11 6 SSW 1022,7 10
09.12.2017 01:00:00 12,0 8,0 11 6 SW - 10
09.12.2017 00:00:00 12,0 8,0 18 10 W - 10
08.12.2017 23:00:00 12,0 7,9 11 6 WSW 1023,5 10
08.12.2017 22:00:00 13,0 9,0 18 10 WSW - 10

tt = temperature
td = dewpoint
ff = wind speed
dd = wind direction
ppp = reduced air pressure
vv = visibility

Next stations